Theta_e
352 352 353 354 354 354 355 354 354 355 357 354 349 353 351 347 343 341 341 343 346 354 350 351 363 361 362 362 364 365 366 363 363 365 365 363 364 354 347 347 346 347 348 349 351 353 356 358 359 360 360 358 358 358 358 357 355 350 348 345 342 338 335 334 333 334 335 335 334 333 333 334 335 336
354 355 355 354 353 354 353 353 351 353 355 355 355 354 351 351 346 345 341 343 343 352 355 350 358 365 360 359 362 362 364 359 362 367 367 364 362 349 346 347 346 346 347 347 347 350 352 354 355 355 354 354 353 355 356 355 354 352 350 347 343 339 335 333 332 334 335 335 334 333 333 334 334 334
356 355 354 353 353 353 353 353 352 354 356 355 354 355 353 350 353 347 346 342 352 348 357 358 355 355 358 358 359 359 362 362 362 367 368 367 357 350 356 350 348 347 346 345 344 344 346 347 348 348 349 350 351 352 354 354 353 352 350 348 345 339 335 333 332 333 334 334 334 333 333 333 333 333
357 355 354 354 354 354 353 354 353 354 356 356 354 355 354 351 350 350 348 345 346 352 353 354 355 354 357 360 358 360 363 362 358 367 367 368 357 363 364 354 349 347 345 344 343 342 341 341 342 345 347 349 351 353 354 352 352 352 351 349 345 339 335 332 332 332 333 333 333 332 332 332 333 332
356 356 355 355 354 354 353 354 354 353 354 358 356 354 352 354 353 352 350 347 347 351 350 350 353 356 356 355 360 360 360 364 366 362 367 367 365 364 364 364 353 348 345 343 342 341 340 339 340 343 346 348 349 351 353 351 350 349 347 345 340 335 334 332 332 331 332 332 332 331 331 331 331 332
357 357 356 355 354 354 353 354 353 354 352 351 353 353 354 353 354 353 352 349 348 347 351 352 354 352 357 354 361 359 358 360 365 364 365 364 364 363 365 365 363 351 346 342 340 340 339 338 339 340 343 345 347 348 347 345 344 343 342 338 335 333 330 331 331 331 331 331 331 330 330 330 330 331
359 357 356 356 355 355 355 355 354 353 353 351 351 352 353 353 353 353 353 351 347 347 349 349 349 354 359 358 357 360 359 363 363 363 364 362 361 362 363 363 362 352 346 343 342 340 339 339 339 338 339 341 341 342 340 337 336 335 334 331 333 333 330 329 331 331 330 330 329 329 329 329 330 330
358 357 357 356 357 357 357 357 357 355 352 352 353 352 353 353 353 354 352 352 352 350 347 351 351 355 353 356 357 358 360 359 362 362 363 362 361 361 362 363 363 357 348 345 343 341 340 339 338 336 336 335 333 333 332 331 331 331 330 329 329 329 328 326 327 330 329 328 327 326 326 327 328 328
360 358 357 358 358 357 356 356 356 356 355 355 352 351 352 352 353 353 353 352 351 350 348 349 352 353 354 357 358 359 358 362 362 362 361 360 361 363 362 361 361 351 346 346 344 342 340 340 338 337 335 334 333 332 331 330 330 329 328 328 327 327 327 326 323 325 325 324 325 323 323 324 326 326
360 359 359 359 359 357 356 356 357 357 356 355 353 353 354 353 352 352 351 352 351 350 349 349 349 353 352 355 357 359 360 357 356 358 361 362 362 363 360 359 359 359 358 358 359 349 348 345 338 336 335 333 332 332 332 331 330 328 326 323 323 325 325 325 324 323 322 322 323 323 323 323 324 325
360 359 359 360 359 358 358 357 357 358 357 355 356 356 356 355 353 352 352 351 350 350 349 350 351 351 353 353 353 357 358 359 358 356 356 353 359 362 360 357 359 360 358 355 349 350 349 346 347 339 334 333 333 333 332 332 330 329 326 323 322 322 322 322 323 322 321 321 321 320 319 321 323 325
359 359 359 359 359 359 360 359 359 359 358 358 356 357 356 356 354 353 353 351 351 350 349 349 349 351 351 353 353 355 355 355 356 357 357 353 353 355 360 359 357 359 360 359 359 354 352 352 349 338 337 337 335 334 335 336 335 334 330 327 327 326 323 322 321 321 320 319 318 317 317 316 320 322
359 359 359 359 359 361 363 361 360 359 359 358 357 358 358 357 355 355 353 352 352 351 350 350 352 350 350 352 352 351 353 352 350 354 355 355 356 356 355 358 362 360 359 360 359 359 360 358 360 361 362 363 352 349 339 340 340 337 331 329 329 327 326 323 322 321 320 319 318 316 316 316 317 320
357 357 358 359 362 362 362 361 357 350 352 357 359 360 360 358 357 355 354 353 352 352 350 349 350 348 348 349 351 351 352 354 355 353 354 352 355 355 355 357 361 363 359 356 356 357 360 357 359 361 359 358 360 358 358 356 349 341 334 330 329 327 326 324 323 321 319 318 317 317 315 316 318 318
356 356 356 357 360 363 363 361 354 348 345 345 347 348 357 361 359 356 354 353 353 351 350 351 350 349 349 350 352 351 350 352 352 353 355 354 354 352 350 348 354 363 360 359 355 355 360 361 358 359 358 358 359 357 358 344 340 335 333 331 329 328 327 326 325 323 320 318 317 316 315 315 316 316
355 355 355 356 356 357 359 360 362 358 352 344 342 341 343 343 348 353 358 357 355 353 351 351 351 350 350 351 353 351 351 353 355 355 354 355 354 353 351 352 349 358 361 356 355 354 359 362 359 358 358 358 358 355 345 339 337 335 333 331 330 329 328 326 326 326 323 320 319 319 318 317 318 317
355 356 356 355 355 355 360 361 361 361 359 351 345 342 342 343 342 336 336 343 357 358 355 352 351 352 352 351 353 354 356 358 354 356 354 355 354 353 352 352 352 356 365 358 355 353 357 360 357 356 357 356 357 355 344 340 338 336 334 333 331 330 328 327 326 325 324 321 319 319 318 317 317 317
354 354 354 354 354 355 356 358 358 359 359 358 357 356 355 354 353 348 338 334 336 347 353 355 352 354 357 352 353 358 360 357 353 354 353 356 353 353 352 356 357 360 361 356 355 352 354 358 354 353 355 356 356 357 346 336 334 334 333 331 330 329 327 326 325 324 323 322 319 318 316 315 315 316
354 355 353 354 354 355 355 356 356 355 354 354 353 352 351 351 352 353 351 351 349 347 348 351 354 354 357 356 356 357 360 359 358 359 357 357 356 357 359 358 358 358 362 360 355 348 353 358 353 352 355 354 355 357 343 337 335 334 332 331 330 328 327 325 325 323 322 321 320 317 315 314 314 314
355 354 353 353 354 354 354 353 343 350 357 354 352 351 350 350 350 349 351 340 342 353 352 352 352 353 353 344 355 356 357 361 361 360 359 358 357 354 350 347 348 348 356 360 356 351 350 356 349 351 354 355 354 357 359 342 337 334 332 330 328 325 323 323 323 323 322 321 320 318 315 313 312 311
348 349 353 355 354 354 354 348 334 331 342 350 350 350 350 350 349 349 351 338 329 329 329 329 332 332 331 330 328 326 327 339 347 350 347 346 348 347 344 345 345 347 353 355 355 351 347 352 352 351 354 355 354 355 356 359 342 336 330 325 323 322 321 320 320 320 321 320 319 318 316 312 311 312
345 346 349 350 352 355 354 331 322 323 339 346 347 347 347 346 346 348 349 348 347 329 323 323 324 325 326 327 326 326 326 325 334 344 344 347 347 345 345 343 345 348 351 352 355 350 348 353 354 351 354 354 354 354 358 361 355 339 332 326 322 320 319 319 319 319 319 319 319 317 315 312 311 319
348 348 349 349 348 342 331 316 317 319 334 343 344 346 345 344 344 346 348 347 347 349 349 351 350 348 339 342 342 344 333 331 340 343 346 348 347 345 346 346 347 344 347 354 358 349 351 352 352 350 349 345 350 355 356 354 354 352 350 347 345 326 321 320 318 316 316 317 317 317 314 312 312 326
348 349 350 347 324 316 314 312 311 313 317 336 340 342 342 342 342 346 345 347 348 351 351 351 352 354 356 357 358 357 356 354 353 349 347 348 348 348 347 348 347 344 348 355 355 353 353 352 348 353 347 343 341 349 352 354 355 354 349 346 345 336 327 323 320 316 314 314 315 314 313 311 312 328
344 346 347 348 325 317 317 314 312 311 315 323 338 340 342 344 344 340 341 344 345 346 347 347 347 348 349 349 350 351 353 354 355 355 352 350 350 348 348 347 347 347 350 355 345 356 350 352 350 349 349 347 346 345 351 352 355 353 353 349 348 351 346 341 333 336 318 312 310 310 310 311 310 320
339 339 341 343 338 318 314 311 308 307 310 314 333 340 324 322 321 335 341 342 343 344 344 344 344 345 346 346 348 348 349 351 353 354 356 355 353 352 351 351 350 348 350 363 336 355 352 350 350 348 348 346 345 347 345 348 351 354 354 347 344 346 344 342 340 338 336 334 329 318 318 312 312 311
334 336 338 340 335 317 310 307 307 308 308 315 329 319 316 315 316 326 335 339 341 342 343 343 343 344 345 346 347 348 349 351 353 352 354 355 356 356 354 354 354 353 355 358 354 355 355 350 353 349 346 348 345 345 346 345 348 355 347 345 342 341 339 338 337 338 339 335 333 317 311 311 311 312
332 332 331 329 314 307 304 305 308 309 312 322 315 313 312 314 319 330 336 338 340 341 341 342 343 344 346 347 347 348 351 351 355 355 354 354 354 355 355 357 354 355 356 356 357 356 355 351 351 353 351 347 345 343 343 349 350 351 350 354 352 348 343 338 337 337 338 337 335 332 328 326 324 320
326 319 311 308 308 310 308 309 311 315 320 315 312 311 313 326 334 336 337 338 340 340 341 342 344 345 347 348 349 352 353 354 354 354 354 354 355 355 356 356 356 355 353 352 354 355 354 351 350 352 352 350 346 346 346 345 348 349 350 349 348 352 347 340 339 338 338 338 335 333 331 331 331 327
316 314 314 315 317 321 325 335 339 339 341 328 323 323 328 337 337 338 338 339 339 339 340 341 342 344 346 347 350 352 352 350 350 351 351 351 351 353 352 351 352 355 355 356 355 355 354 353 353 352 350 350 349 347 349 347 347 350 350 350 351 351 353 352 342 339 338 338 337 336 335 334 332 331
323 327 329 328 321 322 324 326 326 326 332 338 342 343 343 343 341 340 340 340 340 340 340 341 342 345 346 348 348 347 347 346 348 350 349 348 348 349 350 349 348 349 353 356 356 357 357 356 356 354 350 350 351 351 352 352 348 348 350 352 351 346 352 351 346 342 340 338 338 337 335 333 332 332
325 330 330 328 333 333 334 333 333 333 335 336 335 338 339 341 343 343 343 343 343 342 342 342 343 343 345 344 345 346 346 346 347 349 347 347 346 348 348 346 345 348 350 353 355 357 358 359 358 358 356 354 351 353 355 352 349 349 350 351 350 352 353 351 352 353 347 341 337 335 335 334 333 333
326 328 326 324 324 325 324 325 325 326 326 327 327 328 329 332 334 333 336 336 335 335 339 340 341 341 343 343 344 344 344 345 346 349 348 348 347 347 347 344 344 345 345 347 350 354 357 357 358 358 357 357 357 355 351 347 349 352 350 351 351 351 352 353 353 353 354 340 338 339 340 340 336 335
322 320 319 318 317 317 318 319 320 321 321 323 323 323 323 328 330 330 330 329 326 329 334 336 336 338 340 341 342 342 342 344 346 345 340 345 346 344 343 343 344 346 345 346 347 350 353 355 356 356 356 355 357 357 354 349 347 350 351 352 351 350 352 354 354 356 355 347 347 344 343 343 343 339
317 316 314 314 314 313 314 315 315 316 316 317 318 318 321 324 325 324 325 323 323 327 329 329 330 333 336 338 339 339 340 341 343 345 345 345 344 344 343 342 343 344 345 345 347 350 351 350 350 349 349 350 349 353 349 354 351 350 352 352 353 351 352 354 353 354 355 350 346 342 344 346 348 351
314 313 312 312 311 311 311 312 313 313 312 313 313 315 317 318 319 318 318 318 321 323 323 323 325 330 332 332 332 334 337 338 341 343 343 344 344 344 344 343 343 344 345 345 345 349 349 349 348 345 342 343 343 342 346 343 345 353 351 350 353 353 354 355 356 355 353 350 346 344 343 344 348 351
312 311 311 310 310 309 309 309 309 310 310 311 312 313 313 312 313 314 315 317 318 318 319 321 324 326 326 327 330 332 332 333 333 336 340 344 345 344 343 343 343 344 344 345 347 347 348 346 347 344 342 341 339 338 343 354 337 336 354 350 352 354 355 355 354 354 354 351 350 345 344 346 347 351
311 310 309 309 309 309 309 309 309 309 309 310 311 311 311 311 311 311 313 314 314 314 316 317 319 320 323 325 324 321 321 322 323 325 326 330 335 338 340 341 342 343 344 346 347 347 349 347 345 344 342 339 338 339 340 347 353 346 332 348 350 352 354 353 351 350 353 354 349 351 350 346 347 350
311 310 309 308 309 308 308 308 308 308 308 309 309 309 309 309 309 309 310 311 311 312 313 315 316 317 319 317 315 315 314 315 316 317 319 322 326 328 329 332 334 338 340 341 344 347 347 345 345 345 344 342 340 342 345 345 345 352 346 324 346 352 352 352 350 350 351 351 353 353 351 353 348 334
311 310 309 309 308 308 308 308 308 308 308 308 308 308 308 308 307 308 309 309 309 311 312 313 314 315 315 313 312 311 311 311 311 313 315 317 319 320 321 324 326 331 336 338 339 342 343 344 345 345 346 346 348 350 350 349 350 350 352 339 318 340 352 352 349 349 349 352 354 351 350 351 347 349
310 309 308 308 308 308 307 307 307 307 308 308 308 308 308 308 307 308 308 309 310 310 310 311 313 314 313 311 311 309 308 308 309 310 312 312 313 315 316 318 322 328 331 332 335 337 341 345 348 335 345 348 349 350 345 342 339 343 345 350 321 318 326 333 352 353 350 352 353 350 348 347 348 349
310 308 308 308 307 307 307 307 307 307 307 307 307 307 307 307 308 307 308 309 308 308 308 309 311 311 310 310 309 307 306 306 306 307 308 309 310 312 314 316 318 321 323 324 328 332 338 344 347 349 349 347 344 339 336 337 338 341 345 347 351 328 319 318 321 329 353 354 353 349 347 348 349 345
308 307 306 307 307 307 306 306 306 306 306 307 306 306 306 306 306 306 305 305 305 306 306 307 309 308 308 307 306 306 305 304 305 306 306 307 309 309 311 313 314 316 318 321 325 329 333 338 343 345 346 345 343 341 337 338 339 340 342 344 346 350 354 326 318 318 320 324 327 340 350 348 344 338
306 306 306 306 306 306 306 306 306 306 306 306 305 305 305 305 304 304 303 302 302 303 305 306 306 306 305 305 305 304 304 304 304 305 305 306 308 309 310 311 313 314 317 319 322 324 328 331 336 340 340 339 342 341 338 339 339 340 341 343 345 346 346 349 352 330 321 320 318 317 319 322 328 334
306 305 305 305 305 305 305 305 306 305 305 304 304 304 304 304 304 303 302 301 301 301 302 303 303 303 303 303 302 301 302 303 303 305 306 307 308 308 309 311 313 314 315 317 318 319 321 325 329 332 335 337 340 340 339 338 338 338 340 341 341 343 345 345 345 345 347 349 333 320 320 320 321 320
Wind_Speed
2 1 2 2 2 3 2 2 1 2 2 2 1 1 1 3 2 2 3 3 2 1 1 1 2 2 3 5 3 4 3 3 3 3 3 4 4 7 9 9 9 9 10 10 11 11 12 12 12 11 11 13 12 11 10 9 8 7 6 4 3 2 1 2 4 5 5 6 6 8 10 10 10 9
2 2 1 2 3 2 2 3 2 3 3 2 2 2 2 2 1 3 2 4 3 3 2 2 2 4 5 4 4 2 3 3 3 2 2 3 4 7 9 9 10 10 10 10 10 11 11 12 12 12 12 12 13 11 10 10 9 9 8 6 5 4 3 2 4 5 5 5 6 7 9 9 9 9
2 3 3 2 3 2 3 2 2 2 2 3 2 1 1 2 2 4 3 2 2 2 2 2 2 2 4 3 4 3 2 2 2 2 2 3 4 7 6 9 10 10 10 10 10 11 11 11 12 12 12 12 13 13 10 10 9 10 9 7 6 5 4 3 4 4 5 5 5 6 8 8 8 8
3 3 4 4 3 2 2 2 2 3 2 2 2 2 1 1 1 2 3 4 6 2 3 4 5 4 3 5 5 4 3 2 3 3 3 4 5 3 4 7 10 11 11 10 10 10 11 11 11 12 12 12 13 12 11 12 10 9 9 8 6 6 5 5 5 4 5 4 4 5 6 7 7 8
3 3 4 4 4 2 3 3 2 2 2 1 1 1 1 1 2 3 3 3 6 4 2 2 4 3 3 4 2 4 4 4 4 3 3 4 3 3 3 4 8 11 11 11 10 10 11 11 12 12 12 12 13 13 12 13 12 11 11 10 8 7 6 6 5 5 5 4 3 4 5 5 6 7
3 3 4 5 4 3 4 3 3 2 2 2 3 3 3 3 3 3 3 3 3 6 3 4 2 3 1 4 2 4 6 6 4 5 5 4 3 4 4 4 5 10 11 11 11 11 11 12 12 12 12 12 13 13 14 14 13 12 11 11 9 8 8 7 7 6 5 5 4 3 4 4 5 6
3 3 4 5 4 2 3 4 3 2 3 2 3 4 3 4 3 3 4 3 3 5 5 2 3 3 1 2 6 6 4 4 4 6 6 5 4 3 4 5 4 8 11 11 11 11 12 12 12 12 11 11 12 13 14 14 14 12 11 11 10 9 9 9 8 8 7 6 5 4 3 3 4 5
4 4 4 5 4 3 4 4 4 3 2 3 3 4 3 3 4 2 2 4 4 2 5 3 3 3 4 4 4 4 4 4 5 4 5 4 5 6 5 4 5 6 10 12 12 12 12 12 12 12 11 10 11 12 13 13 14 13 11 11 11 10 9 10 9 9 8 7 6 5 4 4 3 3
4 5 5 6 4 3 4 4 4 3 4 3 2 3 3 3 3 1 2 2 2 3 6 5 3 2 2 2 4 3 4 4 4 3 4 5 6 7 6 4 4 7 10 10 11 11 11 12 12 12 11 10 10 11 12 13 13 13 12 11 11 10 10 10 10 10 10 9 8 6 5 5 5 5
5 5 6 6 5 4 5 5 5 4 5 4 3 4 4 4 2 2 2 2 2 3 5 4 5 3 4 4 4 3 2 4 5 6 5 4 4 4 6 5 4 4 5 5 7 7 7 9 11 11 11 10 11 11 11 12 13 13 12 11 11 11 10 10 11 11 10 10 9 7 6 5 6 6
6 6 6 6 6 6 6 6 6 5 5 4 5 5 5 4 3 3 3 2 3 3 4 4 4 5 3 3 6 1 0 2 3 4 6 9 4 2 3 7 6 4 6 8 9 8 8 10 9 10 12 11 12 12 11 11 13 13 13 12 11 11 11 10 11 11 11 10 10 9 8 7 8 8
6 7 7 7 6 7 6 6 6 6 6 4 5 4 3 3 3 4 3 3 3 3 3 4 5 3 4 4 4 3 2 4 2 3 3 5 8 8 4 3 6 6 5 6 6 5 5 6 7 9 9 10 12 12 11 12 12 13 13 12 11 11 11 10 11 11 12 11 11 10 9 8 9 9
6 6 6 7 7 7 9 10 10 8 7 5 5 5 4 4 4 4 4 4 3 4 3 5 4 4 5 5 5 5 4 4 6 1 1 4 5 5 6 7 4 4 4 4 6 5 3 6 7 6 6 6 7 9 10 10 12 13 13 12 11 11 11 11 10 11 12 12 12 11 11 10 9 10
7 7 7 7 11 12 12 12 12 12 12 11 8 6 5 5 5 5 5 4 4 4 5 6 5 6 6 6 6 5 5 4 3 3 3 5 5 4 5 6 4 2 2 3 6 9 2 4 6 5 6 7 5 6 5 6 8 10 11 11 11 11 10 11 11 11 12 13 13 12 12 11 10 10
7 7 7 7 9 10 10 11 12 13 13 13 13 13 12 9 6 5 5 5 4 4 5 6 5 6 7 8 6 6 6 4 5 5 3 4 4 4 4 8 8 1 1 1 4 10 5 1 6 8 7 7 6 6 6 11 13 13 13 13 12 12 11 11 11 11 12 13 13 13 12 11 11 10
6 7 6 6 5 6 7 7 7 9 12 13 13 13 13 13 12 11 8 7 5 5 6 6 6 6 7 8 6 6 4 6 4 4 4 4 5 5 4 4 5 3 2 5 6 9 8 0 5 8 7 6 5 7 10 13 14 13 13 13 13 12 11 11 11 11 12 13 13 13 12 11 11 10
7 6 5 6 5 6 9 8 7 7 8 9 12 13 12 12 11 12 13 13 10 6 6 7 8 7 6 7 7 5 4 3 5 4 4 4 4 5 6 6 6 8 1 2 6 8 10 4 6 7 8 6 5 7 9 12 13 14 13 13 13 13 12 11 11 11 12 12 13 13 13 12 11 11
7 6 6 6 6 6 6 6 6 6 6 6 6 6 6 6 8 9 12 14 15 12 8 7 8 10 6 9 10 9 4 4 7 6 6 3 4 5 7 7 6 6 1 5 5 7 8 2 3 6 8 7 8 8 10 13 14 14 14 13 13 12 11 11 11 11 12 12 13 14 14 13 12 12
6 6 5 6 7 6 6 6 6 6 6 6 6 6 7 7 7 7 6 7 6 6 7 9 10 11 9 10 11 9 5 6 7 5 6 6 7 7 6 5 6 7 5 6 4 6 7 1 3 6 7 7 7 8 10 12 13 13 13 12 11 11 10 10 11 11 12 12 13 14 14 14 13 13
4 4 5 5 6 6 7 8 8 8 5 5 6 8 8 7 7 7 8 10 9 8 8 8 9 9 11 11 10 9 6 5 4 2 2 3 5 6 6 8 7 7 3 5 5 5 6 3 5 8 6 5 7 8 7 10 12 12 12 10 9 9 9 9 10 11 11 12 13 14 14 14 14 13
5 5 4 4 5 5 6 7 8 8 5 6 7 7 8 7 7 8 6 8 13 14 14 15 15 16 16 15 15 15 13 9 4 2 4 7 7 5 7 7 6 7 3 3 7 6 8 4 5 8 6 6 7 7 8 6 8 9 8 7 7 7 7 8 10 10 11 12 12 13 14 14 13 12
3 5 8 7 5 5 4 8 9 6 2 4 6 6 7 8 8 8 5 5 6 10 13 14 15 15 15 15 15 15 14 13 5 5 7 8 4 6 6 8 7 7 3 5 5 3 9 4 4 5 4 4 5 5 6 6 6 6 6 7 7 8 8 8 9 10 10 11 11 12 13 12 11 7
2 3 3 6 5 4 5 7 6 5 2 3 4 5 6 7 9 8 6 6 7 6 6 6 6 7 9 9 7 9 13 12 9 8 9 6 5 7 7 7 6 8 5 6 9 6 6 3 2 4 4 7 6 3 5 5 4 3 3 3 5 8 8 8 8 9 10 10 11 11 12 11 10 5
2 2 3 2 7 5 5 5 5 5 3 1 2 3 4 6 9 5 4 5 6 6 5 6 5 6 5 5 6 5 6 6 7 8 8 7 6 7 8 8 7 9 6 0 7 7 4 1 6 3 6 7 8 4 3 5 5 4 3 3 4 6 4 5 6 8 8 8 10 10 10 10 10 5
3 3 3 2 3 3 3 4 4 3 1 2 1 3 4 6 7 7 6 8 9 8 8 7 7 6 6 6 7 8 8 8 8 7 8 8 8 8 9 9 9 10 9 6 8 5 7 4 6 1 3 4 6 7 5 4 6 6 5 4 6 5 2 3 2 3 5 9 10 10 11 12 14 10
4 5 5 5 3 8 9 9 7 6 5 6 3 5 9 10 10 7 6 5 5 5 5 6 6 6 6 7 7 7 8 8 8 8 8 8 9 9 10 10 10 10 10 4 14 9 7 7 8 8 6 5 8 6 10 8 8 7 4 3 4 5 2 4 2 3 4 4 5 9 10 12 14 16
4 4 5 6 11 15 16 14 13 11 10 5 6 9 9 8 7 6 5 6 6 5 5 5 6 6 6 7 7 7 7 7 7 8 8 9 8 8 8 10 12 12 11 8 5 7 7 10 6 7 9 7 9 8 8 9 8 1 4 3 4 4 3 3 5 5 4 4 5 8 10 12 14 16
5 6 6 8 14 15 14 13 12 12 10 8 11 10 8 5 3 3 5 5 6 7 7 8 8 7 6 7 7 7 6 8 6 7 8 8 9 9 8 9 12 12 11 9 7 6 6 9 8 6 8 8 10 10 11 8 8 7 9 8 5 5 4 5 5 5 4 4 3 4 4 6 8 8
6 8 12 13 12 12 12 12 11 8 9 11 10 11 9 6 3 3 4 5 5 7 7 8 9 10 9 8 8 8 8 8 8 7 7 7 8 8 9 10 10 10 7 8 8 9 8 9 10 8 7 7 9 10 9 11 8 9 8 9 11 6 3 4 5 4 5 4 5 5 7 7 5 6
10 10 11 11 10 9 7 6 4 4 5 8 9 9 8 3 3 3 4 4 5 6 7 7 8 8 9 10 10 9 8 9 9 8 8 7 7 6 7 8 8 8 9 8 9 9 9 9 9 9 9 9 9 11 9 10 10 8 7 8 9 11 9 4 5 4 4 6 7 7 6 5 6 5
7 8 9 7 9 6 9 7 5 5 7 6 5 4 3 3 3 3 3 5 5 6 6 7 8 9 10 10 9 10 10 10 9 7 9 9 10 9 8 9 12 11 8 8 8 8 9 9 9 9 10 10 9 10 10 8 11 9 8 7 6 12 5 2 3 4 5 6 6 5 4 6 7 8
6 6 7 9 8 9 8 8 8 8 9 9 9 9 9 8 6 6 7 8 6 6 5 6 6 7 7 9 9 9 10 10 10 8 9 10 10 9 9 10 12 11 11 8 7 7 8 8 8 8 9 10 12 10 7 8 9 8 9 7 8 10 9 9 9 7 6 5 5 6 7 7 8 7
6 7 8 8 9 9 9 8 8 8 8 8 8 9 9 9 9 10 9 8 9 10 9 7 7 7 7 9 7 6 7 6 7 5 6 6 8 8 7 10 11 11 12 11 9 6 5 7 8 9 9 9 10 11 11 14 12 9 11 10 8 10 8 8 8 9 3 3 6 7 7 6 7 8
7 8 7 8 8 9 8 8 9 9 9 9 9 9 9 9 8 9 8 8 9 9 9 9 9 8 8 6 7 7 9 8 7 7 7 8 7 8 8 8 9 8 8 8 7 6 6 7 7 6 7 9 9 10 10 13 16 12 9 9 9 11 9 8 9 9 6 8 7 8 8 8 7 8
8 7 7 7 7 8 8 8 9 9 9 9 9 9 9 8 9 10 9 9 10 9 9 9 9 9 8 8 8 8 8 9 9 8 7 7 7 7 9 9 9 8 8 8 8 6 6 7 6 6 7 7 8 9 13 14 13 13 9 9 8 9 9 7 8 8 6 5 4 8 11 10 9 6
8 7 7 7 7 8 8 8 8 8 9 9 9 9 9 10 10 10 10 12 11 10 10 10 10 9 8 8 9 9 9 9 9 8 8 7 7 6 7 8 9 8 8 8 8 7 6 6 6 7 9 8 9 13 10 16 19 10 9 8 6 7 7 6 6 6 5 6 6 7 11 12 10 8
6 6 6 6 7 7 7 8 8 8 8 8 8 8 9 10 10 10 11 11 10 10 10 10 9 9 10 9 9 9 10 10 10 11 10 8 7 7 8 8 8 8 8 8 7 7 5 7 6 7 8 9 10 11 12 2 15 20 11 10 9 6 6 6 7 6 6 7 7 8 10 9 11 9
6 5 6 6 6 6 6 6 8 8 7 7 8 8 8 9 9 10 10 9 10 10 10 10 10 10 10 10 11 11 11 11 10 9 10 11 11 10 9 9 9 8 8 8 7 7 6 7 7 7 7 9 10 10 13 10 5 6 12 10 10 9 7 7 9 10 7 5 8 9 7 9 11 10
5 5 5 5 5 5 5 6 6 7 8 7 7 7 8 8 9 10 9 9 10 10 10 10 10 10 10 10 10 11 11 11 11 11 11 10 10 10 10 11 10 9 10 9 7 7 6 6 7 7 8 9 9 9 11 12 13 7 7 17 11 9 9 8 11 11 12 11 8 6 8 9 9 10
4 3 3 3 3 4 4 5 5 5 7 7 7 7 8 9 9 9 9 9 9 10 10 10 10 10 8 9 10 10 9 10 10 11 11 12 11 11 11 9 11 11 10 10 10 7 5 5 5 7 8 9 10 10 10 10 9 11 9 10 18 14 11 9 12 12 12 12 8 11 11 6 6 4
2 2 2 2 2 3 4 4 5 5 5 6 7 8 8 8 8 8 8 9 9 10 9 9 9 9 8 9 9 9 10 10 9 10 11 11 11 11 13 14 10 10 11 12 12 10 8 5 6 10 11 9 10 9 9 9 10 10 12 10 11 20 20 16 12 10 11 10 8 9 12 12 11 9
1 2 2 2 3 3 4 4 5 5 6 6 7 8 8 7 7 9 8 8 8 8 8 9 9 8 8 8 8 9 8 9 9 9 10 10 12 11 11 10 10 11 11 12 14 13 11 11 11 8 7 7 7 8 9 10 10 10 10 11 10 10 17 19 20 18 15 10 7 9 10 10 6 8
3 3 3 3 4 4 4 5 5 5 7 7 7 8 8 8 8 8 7 7 7 7 7 7 8 7 7 8 8 8 8 9 9 9 10 10 10 11 11 11 11 12 12 12 13 13 12 12 10 10 7 8 9 9 12 12 11 10 11 12 12 9 6 12 17 19 20 20 17 13 10 8 7 6
4 4 4 4 4 4 5 5 5 6 7 7 7 8 7 8 8 8 8 8 7 8 8 7 7 7 7 7 8 8 8 9 9 9 10 10 10 9 9 10 11 11 12 12 13 13 11 11 11 10 10 9 8 9 11 11 11 11 11 11 10 10 12 8 6 10 13 16 18 18 19 17 16 18
5 5 5 5 5 5 5 5 5 6 7 7 7 7 7 7 8 9 8 7 8 8 8 8 8 8 8 8 8 9 8 9 9 9 10 10 10 9 9 9 10 11 11 11 12 14 13 12 12 11 11 11 10 10 11 12 14 12 12 12 13 11 11 8 8 10 10 9 12 20 20 20 20 20
Wind_Direction
169 184 203 234 273 280 287 302 278 261 231 213 209 191 162 160 85 316 323 289 282 286 238 333 295 20 8 355 345 340 326 311 298 277 264 268 264 279 282 280 280 279 276 273 274 276 276 274 273 268 269 277 277 275 274 271 263 253 239 225 220 210 262 306 309 316 324 336 349 1 358 355 359 3
193 192 192 213 265 267 281 297 287 274 260 235 223 222 214 158 216 187 250 283 216 266 285 217 290 328 345 340 335 336 306 311 296 262 251 259 261 279 282 285 284 281 278 274 272 274 276 275 275 275 275 276 277 275 268 268 264 258 251 227 227 208 221 253 288 304 313 328 343 357 1 358 2 7
202 231 250 216 244 243 266 283 296 290 258 256 214 245 146 232 150 175 184 254 281 188 292 286 228 281 308 316 310 306 263 287 298 281 275 260 282 288 287 287 289 287 284 279 275 274 273 273 273 274 274 273 274 275 264 260 261 261 256 242 223 205 211 224 264 284 302 319 334 349 2 1 6 7
213 227 249 252 251 232 222 259 272 284 264 241 242 189 191 213 205 152 178 214 270 237 243 281 287 272 279 303 298 293 286 272 282 308 296 300 307 301 295 297 293 292 289 288 282 276 273 270 270 270 270 271 273 273 269 272 267 256 256 247 224 202 203 216 239 267 285 302 319 340 356 358 3 6
233 237 247 254 252 229 248 251 253 254 244 193 216 183 168 199 168 174 174 256 279 286 254 270 282 313 318 303 235 287 288 299 301 304 285 300 302 301 292 293 290 287 288 289 288 282 276 273 270 269 269 269 270 271 272 276 272 267 266 258 237 218 209 208 226 245 263 279 299 328 347 353 352 2
249 248 257 263 261 227 242 260 260 248 245 214 204 197 198 207 209 200 197 227 247 288 306 287 282 289 225 277 275 277 302 301 314 312 309 302 288 294 299 292 289 287 289 291 289 285 279 276 272 270 269 269 272 273 275 277 277 273 269 265 252 230 217 211 216 228 239 255 276 299 334 345 345 352
261 262 256 267 270 244 251 252 260 261 260 253 238 240 203 218 218 199 211 187 253 271 280 252 299 273 292 243 290 296 280 290 294 297 294 304 309 296 293 294 291 291 291 293 291 287 283 278 274 273 270 269 271 274 278 279 280 278 273 269 260 243 223 215 215 223 225 236 254 276 303 321 336 346
246 252 262 262 256 255 260 266 265 261 259 260 255 263 259 242 247 207 189 225 250 274 288 272 249 277 295 270 255 271 277 280 287 278 294 297 291 300 300 288 290 293 290 292 292 290 288 284 281 277 273 270 271 273 275 278 280 279 274 267 263 251 234 220 216 217 217 222 234 255 278 285 297 320
235 241 245 255 250 229 246 258 259 258 264 250 243 252 255 248 255 245 219 233 219 257 275 287 273 300 291 270 285 285 298 304 292 288 279 297 300 296 289 287 284 284 288 289 291 290 287 287 285 281 278 273 269 268 270 274 278 279 276 269 263 255 239 226 218 218 218 216 222 229 248 259 272 289
229 236 239 247 246 241 235 252 252 243 248 248 245 249 245 240 242 253 259 230 235 242 267 278 298 286 291 301 285 299 291 300 310 307 287 257 256 280 307 309 306 313 311 316 314 307 297 285 281 278 277 275 271 269 269 271 275 276 277 270 263 259 247 230 221 217 218 216 218 219 227 246 257 269
234 234 238 240 236 236 233 243 249 250 247 238 241 232 242 236 228 247 243 229 227 230 258 265 236 271 247 232 286 298 161 255 253 286 311 314 301 246 282 310 312 313 315 303 288 284 286 291 293 292 287 281 274 272 269 269 269 273 274 271 263 258 252 236 226 220 217 215 214 220 223 239 247 253
234 234 237 239 236 232 235 233 240 231 244 234 248 238 226 230 227 244 243 238 238 249 250 253 278 254 285 274 243 255 283 282 246 205 252 286 305 315 308 269 296 308 311 307 310 300 285 286 277 276 275 271 271 272 274 267 264 267 269 271 266 258 253 240 227 222 217 214 213 216 218 226 241 250
241 241 241 243 241 235 237 232 235 234 225 227 240 240 210 226 224 239 239 234 242 252 255 275 256 269 275 270 289 298 272 246 283 231 222 267 272 284 303 298 266 251 280 288 295 294 310 305 304 301 299 283 276 269 255 268 266 262 265 266 265 258 251 243 228 221 219 215 213 214 217 220 230 241
241 241 241 243 243 243 245 246 243 241 238 234 233 239 213 218 224 228 241 244 239 248 262 259 271 283 277 277 271 269 261 260 251 255 234 270 287 301 283 275 257 228 249 289 306 304 303 292 295 290 282 291 271 282 274 271 272 276 268 265 264 258 247 242 230 219 216 214 213 213 217 219 225 233
242 240 238 240 246 248 248 248 248 247 245 243 243 246 245 238 223 228 238 246 235 238 248 259 256 253 270 273 267 259 277 264 256 265 248 254 277 286 317 312 314 121 244 269 300 302 311 306 298 302 294 292 292 280 273 277 277 271 270 269 266 262 251 240 233 220 214 212 212 212 215 219 225 232
241 242 241 239 236 237 238 243 246 247 248 248 249 249 249 248 245 241 238 248 251 226 242 253 248 252 253 269 271 269 259 263 255 235 236 237 252 272 264 258 268 261 50 320 304 293 301 174 287 294 289 294 284 282 280 281 279 276 272 269 267 263 256 244 236 226 214 211 210 210 212 216 221 227
247 248 248 252 242 244 239 241 240 242 254 252 250 254 258 260 246 237 239 240 241 250 242 248 262 244 252 262 261 238 237 209 266 271 244 233 232 234 257 254 273 284 156 269 286 288 295 304 288 288 292 296 287 290 278 272 274 278 276 272 268 265 257 247 238 229 218 210 207 207 207 211 215 220
244 240 241 249 253 243 243 244 243 242 245 253 260 259 250 252 258 247 230 233 239 239 240 239 248 257 222 250 259 261 239 251 266 274 274 267 257 249 246 259 257 271 169 265 285 285 283 269 260 272 288 298 298 286 281 281 280 279 278 275 273 269 261 249 239 230 221 211 205 204 204 206 209 210
255 255 247 247 254 260 246 227 227 238 245 251 256 260 260 254 251 250 242 222 213 210 223 230 236 252 251 251 260 268 259 243 258 257 277 285 278 276 284 272 249 261 233 230 205 257 278 241 274 265 273 288 290 283 289 276 274 277 277 276 275 274 267 255 244 235 225 215 208 204 203 203 204 205
280 271 260 256 263 266 268 269 258 255 262 251 251 256 259 261 258 252 245 240 235 229 217 215 227 236 245 247 254 258 259 249 241 259 255 263 257 268 274 275 279 267 216 185 204 254 255 247 277 279 277 277 275 282 282 284 274 273 278 282 280 278 276 264 252 241 230 219 212 206 204 203 202 202
302 302 293 273 272 276 278 287 294 286 264 257 258 263 270 274 279 274 275 234 237 240 239 239 240 244 248 252 254 259 259 248 267 307 281 260 255 253 269 264 263 260 222 187 211 249 272 230 237 270 272 263 273 277 280 285 287 286 291 287 280 273 271 262 254 247 236 225 216 211 208 204 201 198
310 301 305 308 295 289 301 9 9 5 303 258 264 269 276 282 278 276 282 288 259 233 240 247 250 255 261 263 266 268 267 261 217 208 236 249 244 254 249 266 261 272 233 228 179 241 257 266 214 253 274 277 241 254 260 273 283 293 286 275 273 273 264 257 250 245 242 232 222 216 210 206 194 187
318 298 308 299 354 26 34 39 40 21 334 270 269 269 274 273 275 277 304 289 288 287 277 261 250 254 248 247 241 252 252 250 218 215 234 256 238 254 257 261 282 282 246 214 169 215 264 246 222 205 281 280 264 223 273 278 283 281 282 288 284 265 265 260 245 242 241 237 231 221 212 205 190 210
338 318 313 38 76 73 49 43 40 54 60 355 300 290 269 271 273 309 323 308 304 300 290 286 281 273 281 275 260 253 250 241 212 218 222 230 235 245 260 254 248 258 264 132 182 207 271 254 272 166 240 280 292 292 283 276 248 254 256 284 261 275 242 255 253 240 242 241 239 231 220 206 201 225
343 345 345 354 117 68 333 324 300 274 219 194 225 220 243 252 279 314 295 290 290 286 288 284 279 274 270 267 265 264 262 258 254 238 223 224 223 231 247 255 251 255 251 229 197 227 257 252 269 183 241 218 258 284 270 262 277 263 251 236 266 267 248 256 269 262 201 222 229 229 224 213 210 225
349 342 329 324 334 352 341 327 314 285 245 218 242 234 238 257 276 283 280 280 276 267 270 271 273 275 273 272 268 263 261 257 253 250 246 228 228 228 233 240 256 269 265 209 183 214 235 261 258 268 270 258 267 248 285 274 271 275 240 231 232 259 228 270 247 240 237 217 212 210 216 210 216 222
319 316 320 313 336 335 323 318 314 310 301 262 225 240 249 253 265 279 272 274 270 262 261 263 262 260 255 260 259 256 258 259 251 256 254 256 244 231 235 239 243 251 263 269 183 221 221 256 253 249 266 259 273 283 270 279 284 261 259 221 230 231 211 228 236 242 229 217 235 190 209 218 221 222
327 329 333 320 314 307 304 303 302 301 300 285 293 293 287 291 275 272 285 281 280 280 278 275 272 268 265 268 270 267 267 274 274 266 266 263 258 257 254 243 248 254 259 258 248 224 228 250 256 238 245 261 269 274 283 272 271 278 289 290 233 217 212 199 231 243 237 226 234 209 219 226 217 214
338 317 305 302 302 302 301 298 292 288 284 278 272 274 277 281 272 275 281 289 297 293 286 283 283 285 284 281 281 285 286 284 282 273 267 264 266 267 264 264 263 263 254 252 244 242 236 238 249 247 245 240 251 259 261 272 278 283 282 292 292 276 202 197 228 225 229 224 231 219 222 223 218 193
319 313 312 310 314 315 310 306 308 302 302 305 297 285 276 260 244 250 277 284 287 288 290 292 291 293 296 295 297 294 292 290 286 287 285 288 280 274 277 282 271 256 254 240 237 238 239 240 240 243 249 247 238 254 254 268 270 264 267 271 279 289 272 226 210 210 230 239 230 228 234 225 233 194
343 333 334 323 317 319 320 314 290 289 302 307 316 324 297 275 262 246 242 262 270 273 276 280 283 291 294 297 295 294 295 291 287 285 287 287 289 291 286 284 286 288 269 260 254 238 239 240 240 235 247 256 253 242 252 249 264 268 263 256 263 272 283 240 199 217 215 233 241 242 244 236 234 222
318 335 350 2 19 14 17 17 17 14 8 7 1 1 359 347 331 306 277 272 260 267 267 276 278 280 285 292 295 296 295 294 296 290 289 289 290 289 290 286 285 289 290 278 262 246 235 242 246 240 237 246 258 263 249 251 250 257 264 257 257 261 261 269 272 254 201 219 246 239 227 227 233 224
355 11 15 11 10 12 8 7 5 3 0 359 355 357 357 349 1 4 2 6 359 345 329 320 313 303 302 299 292 279 282 277 284 275 270 261 274 279 266 270 276 283 287 288 285 271 246 245 240 247 250 250 249 257 266 270 262 248 265 264 250 258 264 257 256 264 212 191 241 251 247 227 229 233
38 30 23 18 12 6 5 1 360 355 352 351 350 348 348 347 354 358 359 4 347 332 330 338 334 327 319 311 311 306 300 295 285 277 266 276 268 272 271 267 268 266 269 272 271 264 263 260 255 246 249 254 255 251 250 257 267 268 252 256 258 265 259 257 254 255 230 224 244 263 262 254 224 217
41 30 28 21 14 8 5 7 359 354 351 351 346 343 340 343 352 353 353 356 339 334 340 336 330 322 329 331 331 322 314 308 299 290 275 265 263 259 265 268 272 275 272 270 271 262 256 258 258 264 262 256 264 248 215 227 260 258 258 248 243 250 254 247 260 262 241 230 220 250 267 271 271 240
40 33 29 20 16 8 10 6 357 356 350 348 345 341 341 346 350 347 348 342 334 339 338 334 326 329 336 335 327 317 315 315 308 298 288 277 269 259 257 260 267 271 270 271 275 271 263 264 257 264 273 276 282 290 290 210 220 244 253 258 242 248 252 254 251 256 239 234 212 237 262 268 267 260
48 36 30 27 20 14 8 2 356 351 348 342 342 345 347 342 342 341 337 332 339 340 334 328 331 337 338 327 318 327 339 341 338 332 324 311 291 282 276 274 270 271 275 271 269 273 262 264 253 251 260 267 271 277 277 161 223 228 239 260 269 253 266 273 271 257 223 209 233 217 238 248 261 262
47 37 30 23 18 10 5 1 358 352 347 343 341 341 342 339 336 336 334 339 341 338 338 338 339 338 334 344 352 351 346 342 337 334 334 334 332 330 327 319 314 305 301 296 292 283 270 264 259 250 246 255 267 268 286 284 261 258 222 239 259 275 273 273 274 275 262 208 217 231 223 241 250 255
54 44 36 19 11 358 356 352 350 350 347 343 342 338 335 335 335 333 336 338 337 336 335 335 338 335 343 357 354 350 344 339 336 333 329 326 327 328 328 325 320 315 307 298 296 287 277 265 261 259 251 254 253 260 273 285 285 301 209 206 233 267 267 261 270 273 279 275 251 219 227 240 266 276
52 48 36 16 356 348 340 340 335 336 340 340 335 335 332 332 332 331 333 334 334 334 332 332 329 331 347 352 348 339 335 334 330 326 325 323 324 321 317 319 312 306 301 298 298 290 269 267 269 271 270 260 264 265 268 267 279 283 278 225 210 226 256 268 265 268 273 269 272 279 276 255 243 221
52 35 27 358 338 327 328 325 321 318 317 325 327 325 325 322 324 330 329 328 328 328 328 328 327 333 342 342 338 337 330 327 326 324 323 320 315 314 313 313 307 310 309 305 303 300 293 290 287 274 270 272 271 282 283 278 267 272 278 275 208 216 230 234 249 257 260 270 275 271 276 279 283 284
19 4 346 337 332 326 317 314 315 309 310 317 320 321 320 315 311 315 316 322 324 324 322 324 326 330 332 332 331 328 321 317 318 317 318 317 317 315 316 317 313 314 312 307 304 303 306 306 302 295 286 279 284 274 268 268 274 276 276 281 286 221 219 233 236 237 248 257 251 258 265 278 273 272
353 340 337 330 323 320 319 311 307 307 315 317 318 320 318 317 317 323 327 324 319 314 314 318 323 322 321 323 322 318 313 312 312 310 309 309 312 313 313 314 313 310 306 302 300 301 303 307 304 299 286 273 268 263 267 271 272 275 278 285 284 291 265 215 223 234 239 241 241 241 246 256 275 271
338 328 322 319 315 312 309 307 304 311 314 314 316 317 317 318 320 322 326 322 316 315 314 309 310 313 314 314 312 308 302 303 304 302 302 302 296 294 296 298 302 304 305 303 307 306 308 305 303 301 292 282 279 273 269 272 274 271 274 274 282 291 285 287 265 226 233 241 245 245 247 246 237 246
325 321 317 315 314 313 307 307 306 315 317 315 316 316 315 316 316 320 316 312 312 312 310 310 310 310 309 309 308 303 297 291 293 292 292 295 297 296 295 294 297 304 305 309 312 312 315 316 314 310 295 290 283 276 274 271 276 283 277 273 278 276 279 281 282 279 272 274 221 217 231 233 240 245